7 * 24
多渠道服务支持
ORBCOMM FM18 是一颗由 ORBCOMM 公司运营的低轨(LEO)卫星,属于其全球物联网通信网络的一部分。该卫星主要用于提供远程机器对机器(M2M)通信服务,支持物流、运输、能源和环境监测等行业。FM18 采用蜂窝卫星通信技术,运行在 137-152 MHz 和 401-403 MHz 频段,具备全球覆盖能力,能够实现低带宽数据传输。该卫星是 ORBCOMM 第二代卫星系统的一部分,旨在提升网络性能和可靠性。
| 数据来源 | 国际轨道数据 |
| 星历时间: | 2025-12-15T11:46:30+0800 21小时前 查看轨道信息 |
| 半长轴: | 7139.409km |
| 偏心率: | 0.0003208 |
| 轨道倾角: | 44.993° |
| 近地点辐角 | 143.869° |
| 升交点赤经 | 35.727° |
| 平近点角 | 216.238° |
| 近地点: | 758.983km |
| 远地点: | 763.565km |
| 周期: | 100.058分钟 |
| 每日圈数: | 14.391612 |